Flag for U.S.A. Weather past 2 weeks in Barrow, Alaska, U.S.A.

Now
-19 °F

Ice fog.


Feels Like: -44 °F
Forecast: -12 / 21 °F
Wind: 16 mph from East

Location: Post Rogers Memorial Airport

Current Time: Dec 27, 2014 at 9:53:38 PM

Latest Report: Dec 27, 2014 at 8:53 PM


Visibility: 2 mi

Pressure: 30.68 "Hg

Humidity: 80%

Dew point: -23 °F

Location of BarrowLocation

Historic Weather in Barrow — Graph

°F

Barrow temperature yesterday

Maximum temperature yesterday: -7 °F (at 12:53 AM)
Minimum temperature yesterday: -15 °F (at 11:53 PM)
Average temperature yesterday: -10 °F

Past Weeks' High & Low Weather Summary

 TemperatureHumidityPressure
High5 °F (Dec 22, 4:53 PM)91% (Dec 24, 2:53 AM)30.73 "Hg (Dec 24, 2:53 AM)
Low-27 °F (Dec 27, 1:53 PM)70% (Dec 13, 6:53 PM)29.58 "Hg (Dec 23, 9:53 PM)
Average-8 °F81%29.95 "Hg
* Reported Dec 12 8:53 PM — Dec 27 8:53 PM, Barrow, Weather by CustomWeather, © 2014

Note: Actual official high and low records may vary slightly from our data, if they occured in-between our weather recording intervals... More about our weather records

Advertising

Barrow weather history for previous 24 hours

 ConditionsComfort  
Time TempWeatherWind HumidityBarometerVisibility
8:53 PM
Dec 27
-19 °FIce fog.16 mph80%30.68 "Hg2 mi
8:00 PM-20 °FIce fog.17 mph76%30.67 "Hg2 mi
6:53 PM-23 °FIce fog.15 mph81%30.70 "Hg3 mi
5:53 PM-25 °FSunny.10 mph77%30.70 "Hg7 mi
4:53 PM-25 °FIce fog.13 mph81%30.72 "Hg4 mi
3:53 PM-27 °FPassing clouds.13 mph80%30.72 "Hg10 mi
2:53 PM-27 °FSunny.14 mph76%30.73 "Hg10 mi
1:53 PM-27 °FSunny.10 mph80%30.73 "Hg10 mi
12:53 PM-26 °FSunny.8 mph81%30.71 "Hg10 mi
11:53 AM-26 °FSunny.9 mph81%30.71 "Hg10 mi
10:53 AM-25 °FSunny.7 mph77%30.70 "Hg10 mi
9:53 AM-24 °FSunny.6 mph81%30.68 "Hg10 mi
8:53 AM-22 °FSunny.12 mph81%30.65 "Hg10 mi
7:53 AM-21 °FSunny.8 mph80%30.62 "Hg10 mi
6:53 AM-20 °FSunny.9 mph81%30.60 "Hg10 mi
5:53 AM-18 °FClear.6 mph86%30.58 "Hg10 mi
4:53 AM-17 °FClear.8 mph86%30.55 "Hg10 mi
3:53 AM-15 °FClear.7 mph82%30.53 "Hg10 mi
2:53 AM-15 °FClear.8 mph82%30.51 "Hg10 mi
1:53 AM-15 °FClear.10 mph82%30.47 "Hg10 mi
12:53 AM-15 °FSunny.8 mph82%30.45 "Hg8 mi
11:53 PM
Dec 26
-15 °FClear.9 mph82%30.41 "Hg10 mi
10:53 PM-14 °FClear.8 mph82%30.37 "Hg10 mi
9:53 PM-14 °FClear.10 mph86%30.33 "Hg10 mi
Weather by CustomWeather, © 2014

See weather overviewHow to use our weather pages